Terug naar catalogus

STARLINK-2692

ActiefCommunicatieVLEO
NORAD 48434·PAYLOAD·🇺🇸 United States

Gelanceerd May 9, 2021 vanaf Cape Canaveral Space Force Station

Loading…

Volgende Passages (komende 24 uur)

TLE

VersSource: CelesTrak SupGP

Epoch: Sep 15, 2026, 02:31 UTC

1 48434C 21040G   26258.10534722  .00050676  00000+0  16294-2 0  2582
2 48434  53.1594 351.2777 0001161  84.7221 268.5259 15.31680316    19

Volg STARLINK-2692 in realtime met AllMySat

Download on the App Store